Weather History for KRGK - August, 2014

Change the Weather History Date:

Wednesday, August 13, 2014

  Actual Average Record
Temperature  
Mean Temperature 68 °F -  
Max Temperature 82 °F 77 °F 87 °F (2003)
Min Temperature 55 °F 56 °F 46 °F (2004)
Cooling Degree Days 4    
Growing Degree Days 18 (Base 50)    
Moisture  
Dew Point 56 °F    
Average Humidity 65    
Maximum Humidity 100    
Minimum Humidity 37    
Precipitation  
Precipitation 0.00 in - - ()
Sea Level Pressure  
Sea Level Pressure 30.04 in    
Wind  
Wind Speed 3 mph (North)    
Max Wind Speed 9 mph    
Max Gust Speed -    
Visibility 10 miles    
Events      
Averages and records for this station are not official NWS values.
T = Trace of Precipitation, MM = Missing Value Source: NWS Daily Summary

Daily Weather History Graph

Daily Weather History Graph

Search for Another Location

Airport or City:

Trip Planner

Search our weather history database for the weather conditions in past years. The results will help you decide how hot, cold, wet, or windy it might be!

Date:

Astronomy

Aug. 13, 2014 Rise Set
Actual Time 6:10 AM CDT 8:18 PM CDT
Civil Twilight 5:38 AM CDT 8:50 PM CDT
Nautical Twilight 4:58 AM CDT 9:29 PM CDT
Astronomical Twilight 4:15 AM CDT 10:12 PM CDT
Moon 9:52 PM CDT (8/13) 9:49 AM CDT (8/13)
Length of Visible Light 15h 12m
Length of Day
14h 08m
Waning Gibbous, 87% of the Moon is Illuminated
Aug 13
Waning Gibbous
Aug 17
Last Quarter
Aug 25
New
Sep 2
First Quarter
Sep 8
Full

Hourly Weather History & Observations

Time (CDT) Temp. Heat Index Dew Point Humidity Pressure Visibility Wind Dir Wind Speed Gust Speed Precip Events Conditions
12:15 AM 59.0 °F - 55.4 °F 88% 30.02 in 10.0 mi Calm Calm - N/A   Clear
12:35 AM 57.2 °F - 55.4 °F 94% 30.01 in 10.0 mi NW 3.5 mph - N/A   Clear
12:55 AM 59.0 °F - 55.4 °F 88% 30.02 in 10.0 mi NW 3.5 mph - N/A   Clear
1:15 AM 57.2 °F - 55.4 °F 94% 30.01 in 10.0 mi Calm Calm - N/A   Clear
1:34 AM 57.2 °F - 53.6 °F 88% 30.02 in 10.0 mi Calm Calm - N/A   Clear
1:55 AM 57.2 °F - 55.4 °F 94% 30.01 in 10.0 mi Calm Calm - N/A   Clear
2:15 AM 57.2 °F - 55.4 °F 94% 30.01 in 10.0 mi Calm Calm - N/A   Clear
2:34 AM 57.2 °F - 55.4 °F 94% 30.01 in 10.0 mi Calm Calm - N/A   Clear
2:55 AM 57.2 °F - 55.4 °F 94% 30.01 in 10.0 mi Calm Calm - N/A   Clear
3:15 AM 55.4 °F - 53.6 °F 94% 30.01 in 10.0 mi Calm Calm - N/A   Clear
3:34 AM 55.4 °F - 55.4 °F 100% 30.01 in 10.0 mi NNW 3.5 mph - N/A   Clear
3:55 AM 57.2 °F - 55.4 °F 94% 30.01 in 10.0 mi Calm Calm - N/A   Scattered Clouds
4:15 AM 57.2 °F - 55.4 °F 94% 30.02 in 10.0 mi Calm Calm - N/A   Scattered Clouds
4:35 AM 59.0 °F - 55.4 °F 88% 30.01 in 10.0 mi Calm Calm - N/A   Scattered Clouds
4:55 AM 57.2 °F - 55.4 °F 94% 30.02 in 10.0 mi NW 3.5 mph - N/A   Scattered Clouds
5:15 AM 59.0 °F - 57.2 °F 94% 30.02 in 10.0 mi NW 3.5 mph - N/A   Clear
5:34 AM 57.2 °F - 55.4 °F 94% 30.03 in 10.0 mi Calm Calm - N/A   Clear
5:55 AM 57.2 °F - 55.4 °F 94% 30.04 in 10.0 mi Calm Calm - N/A   Clear
6:15 AM 57.2 °F - 55.4 °F 94% 30.04 in 10.0 mi WNW 3.5 mph - N/A   Clear
6:35 AM 57.2 °F - 55.4 °F 94% 30.05 in 10.0 mi Calm Calm - N/A   Clear
8:34 AM 64.4 °F - 57.2 °F 77% 30.06 in 10.0 mi Calm Calm - N/A   Clear
9:15 AM 71.6 °F - 57.2 °F 60% 30.06 in 10.0 mi WNW 6.9 mph - N/A   Scattered Clouds
9:34 AM 71.6 °F - 59.0 °F 64% 30.06 in 10.0 mi NNW 5.8 mph - N/A   Scattered Clouds
10:15 AM 75.2 °F - 60.8 °F 61% 30.06 in 10.0 mi West 6.9 mph - N/A   Scattered Clouds
10:34 AM 75.2 °F - 60.8 °F 61% 30.06 in 10.0 mi West 4.6 mph - N/A   Clear
10:55 AM 77.0 °F - 60.8 °F 57% 30.06 in 10.0 mi West 4.6 mph - N/A   Clear
11:15 AM 78.8 °F - 60.8 °F 54% 30.06 in 10.0 mi NW 5.8 mph - N/A   Clear
11:35 AM 78.8 °F - 60.8 °F 54% 30.06 in 10.0 mi North 4.6 mph - N/A   Scattered Clouds
11:55 AM 78.8 °F - 60.8 °F 54% 30.06 in 10.0 mi NNW 4.6 mph - N/A   Scattered Clouds
12:14 PM 80.6 °F 81.1 °F 59.0 °F 48% 30.05 in 10.0 mi NNW 5.8 mph - N/A   Scattered Clouds
12:35 PM 82.4 °F 82.0 °F 57.2 °F 42% 30.05 in 10.0 mi NNE 8.1 mph - N/A   Scattered Clouds
12:55 PM 80.6 °F 80.8 °F 57.2 °F 45% 30.05 in 10.0 mi North 5.8 mph - N/A   Scattered Clouds
1:14 PM 80.6 °F 80.8 °F 57.2 °F 45% 30.05 in 10.0 mi NE 8.1 mph - N/A   Scattered Clouds
1:35 PM 80.6 °F 80.8 °F 57.2 °F 45% 30.05 in 10.0 mi NE 4.6 mph - N/A   Scattered Clouds
1:55 PM 80.6 °F 80.5 °F 55.4 °F 42% 30.05 in 10.0 mi NNE 5.8 mph - N/A   Scattered Clouds
2:14 PM 82.4 °F 81.7 °F 55.4 °F 39% 30.04 in 10.0 mi North 6.9 mph - N/A   Scattered Clouds
2:35 PM 82.4 °F 81.7 °F 55.4 °F 39% 30.04 in 10.0 mi NNE 5.8 mph - N/A   Mostly Cloudy
2:55 PM 82.4 °F 81.7 °F 55.4 °F 39% 30.04 in 10.0 mi NE 8.1 mph - N/A   Scattered Clouds
3:14 PM 82.4 °F 81.7 °F 55.4 °F 39% 30.04 in 10.0 mi NNE 8.1 mph - N/A   Mostly Cloudy
3:35 PM 82.4 °F 81.4 °F 53.6 °F 37% 30.04 in 10.0 mi North 8.1 mph - N/A   Mostly Cloudy
3:55 PM 80.6 °F 80.5 °F 55.4 °F 42% 30.04 in 10.0 mi NNE 5.8 mph - N/A   Scattered Clouds
4:14 PM 82.4 °F 81.7 °F 55.4 °F 39% 30.04 in 10.0 mi North 5.8 mph - N/A   Scattered Clouds
4:35 PM 82.4 °F 81.4 °F 53.6 °F 37% 30.04 in 10.0 mi North 8.1 mph - N/A   Scattered Clouds
4:55 PM 82.4 °F 81.7 °F 55.4 °F 39% 30.03 in 10.0 mi NNE 9.2 mph - N/A   Clear
5:14 PM 82.4 °F 81.4 °F 53.6 °F 37% 30.04 in 10.0 mi NE 9.2 mph - N/A   Clear
5:35 PM 80.6 °F 80.3 °F 53.6 °F 39% 30.03 in 10.0 mi East 6.9 mph - N/A   Clear
5:55 PM 80.6 °F 80.3 °F 53.6 °F 39% 30.04 in 10.0 mi NE 5.8 mph - N/A   Clear
6:14 PM 80.6 °F 80.3 °F 53.6 °F 39% 30.04 in 10.0 mi NE 6.9 mph - N/A   Clear
6:35 PM 78.8 °F - 53.6 °F 42% 30.04 in 10.0 mi NE 5.8 mph - N/A   Clear
6:55 PM 78.8 °F - 51.8 °F 39% 30.04 in 10.0 mi NE 6.9 mph - N/A   Clear
7:14 PM 78.8 °F - 51.8 °F 39% 30.04 in 10.0 mi NE 5.8 mph - N/A   Clear
7:55 PM 73.4 °F - 53.6 °F 50% 30.05 in 10.0 mi Calm Calm - N/A   Clear
8:35 PM 69.8 °F - 53.6 °F 56% 30.05 in 10.0 mi ENE 3.5 mph - N/A   Clear
8:55 PM 69.8 °F - 53.6 °F 56% 30.06 in 10.0 mi Calm Calm - N/A   Clear
11:15 PM 59.0 °F - 53.6 °F 82% 30.09 in 10.0 mi Calm Calm - N/A   Clear
11:35 PM 60.8 °F - 53.6 °F 77% 30.09 in 10.0 mi Calm Calm - N/A   Clear
11:54 PM 57.2 °F - 53.6 °F 88% 30.09 in 10.0 mi Calm Calm - N/A   Clear